Waarnemingen

Advertentie
Mijn weer
Gilze-Rijen, Nederland (6350): temperatuur & dauwpunt: 16.01.2017 13:00:00 - 22.01.2017 13:00:00 (CET)Gilze-Rijen, Nederland (6350): temperatuur 5cm: 16.01.2017 13:00:00 - 22.01.2017 13:00:00 (CET)Gilze-Rijen, Nederland (6350): windsnelheid & windstoten: 16.01.2017 13:00:00 - 22.01.2017 13:00:00 (CET)Gilze-Rijen, Nederland (6350): windrichting: 16.01.2017 13:00:00 - 22.01.2017 13:00:00 (CET)Gilze-Rijen, Nederland (6350): luchtdruk: 16.01.2017 13:00:00 - 22.01.2017 13:00:00 (CET)Gilze-Rijen, Nederland (6350): zicht: 16.01.2017 13:00:00 - 22.01.2017 13:00:00 (CET)Gilze-Rijen, Nederland (6350): neerslag: 16.01.2017 13:00:00 - 22.01.2017 13:00:00 (CET)
Datum & Tijd tt [°C] td [°C] tt 5cm [°C] ff [km/u] ff [kn] fx [km/u] fx [kn] dd ppp [hPa] vv [km] rr [mm]
22.01.2017 13:00:00 - - - - - - - - - - -
22.01.2017 12:00:00 0,6 -3,3 1,8 4 2 4 2 - 1028,0 8 0,0
22.01.2017 11:00:00 -1,2 -4,2 -0,6 2 1 4 2 - 1027,9 7 0,0
22.01.2017 10:00:00 -5,1 -6,3 -5,2 2 1 4 2 - 1027,9 7 0,0
22.01.2017 09:00:00 -8,5 -9,4 -12,1 4 2 7 4 - 1027,5 9 0,0
22.01.2017 08:00:00 -8,7 -9,6 -12,9 4 2 4 2 ZZO 1027,3 7 0,0
22.01.2017 07:00:00 -8,3 -9,3 -12,5 2 1 4 2 Z 1027,3 2,9 0,0
22.01.2017 06:00:00 -8,1 -8,9 -12,4 4 2 4 2 Z 1027,5 5 0,0
22.01.2017 05:00:00 -7,9 -8,7 -12,3 4 2 4 2 Z 1027,7 5 0,0
22.01.2017 04:00:00 -7,3 -7,5 -12,0 4 2 4 2 Z 1027,9 0,5 0,0
22.01.2017 03:00:00 -7,2 -7,6 -11,9 4 2 4 2 Z 1027,7 1,0 0,0
22.01.2017 02:00:00 -6,9 -7,1 -11,7 4 2 4 2 O 1027,6 0,5 0,0
22.01.2017 01:00:00 -6,2 -6,7 -11,7 2 1 4 2 O 1027,7 3,1 0,0
22.01.2017 00:00:00 -5,9 -6,4 -11,3 2 1 4 2 O 1027,9 8 0,0
21.01.2017 23:00:00 -5,2 -5,8 -11,1 0 0 7 4 N 1027,8 10 0,0
21.01.2017 22:00:00 -5,0 -6,0 -10,1 5 3 7 4 Z 1027,9 10 0,0
21.01.2017 21:00:00 -2,9 -4,9 -9,4 2 1 7 4 O 1027,8 10 0,0
21.01.2017 20:00:00 -1,5 -4,5 -7,8 8 4 14 8 OZO 1028,0 10 0,0
21.01.2017 19:00:00 -2,2 -4,2 -7,7 5 3 7 4 OZO 1027,9 10 0,0
21.01.2017 18:00:00 -1,4 -3,9 -6,4 4 2 7 4 O 1027,8 10 0,0
21.01.2017 17:00:00 2,5 -3,3 -0,5 8 4 11 6 OZO 1027,7 10 0,0
21.01.2017 16:00:00 4,3 -3,2 3,9 9 5 14 8 O 1027,7 10 0,0
21.01.2017 15:00:00 4,8 -3,4 5,3 11 6 18 10 OZO 1028,0 10 0,0
21.01.2017 14:00:00 4,5 -2,9 5,4 9 5 22 12 OZO 1028,6 10 0,0
21.01.2017 13:00:00 3,8 -3,5 5,0 11 6 18 10 OZO 1029,5 10 0,0
21.01.2017 12:00:00 2,8 -2,3 3,8 11 6 14 8 O 1030,1 10 0,0
21.01.2017 11:00:00 0,9 -3,0 1,3 13 7 18 10 O 1030,4 10 0,0
21.01.2017 10:00:00 -0,6 -3,4 -1,2 13 7 18 10 O 1030,6 10 0,0
21.01.2017 09:00:00 -3,1 -4,5 -6,7 11 6 14 8 O 1030,6 9 0,0
21.01.2017 08:00:00 -2,6 -3,4 -6,0 9 5 14 8 O 1030,5 8 0,0
21.01.2017 07:00:00 -1,4 -2,7 -2,8 13 7 18 10 ONO 1030,5 9 0,0
21.01.2017 06:00:00 -1,8 -2,8 -3,1 9 5 14 8 ONO 1030,9 8 0,0
21.01.2017 05:00:00 -2,5 -3,9 -4,6 9 5 14 8 ONO 1031,4 10 0,0
21.01.2017 04:00:00 -1,9 -4,9 -4,3 9 5 14 8 NO 1031,6 10 0,0
21.01.2017 03:00:00 -2,5 -6,1 -4,9 9 5 14 8 ONO 1031,9 10 0,0
21.01.2017 02:00:00 -3,3 -7,1 -6,3 5 3 11 6 NO 1032,1 10 0,0
21.01.2017 01:00:00 -2,7 -6,8 -6,0 8 4 11 6 NO 1032,6 10 0,0
21.01.2017 00:00:00 -2,3 -7,1 -6,1 8 4 14 8 NO 1032,9 10 0,0
20.01.2017 23:00:00 -1,3 -6,7 -3,2 9 5 14 8 NO 1033,0 10 0,0
20.01.2017 22:00:00 -1,4 -5,9 -3,9 8 4 14 8 NO 1033,4 10 0,0
20.01.2017 21:00:00 0,0 -5,7 -2,7 8 4 14 8 NO 1033,6 10 0,0
20.01.2017 20:00:00 -0,4 -5,3 -2,8 9 5 14 8 NO 1033,6 10 0,0
20.01.2017 19:00:00 -1,4 -5,1 -3,1 9 5 14 8 NO 1033,5 10 0,0
20.01.2017 18:00:00 -0,9 -4,9 -2,0 11 6 14 8 NO 1033,8 10 0,0
20.01.2017 17:00:00 1,1 -4,9 0,2 9 5 14 8 NO 1033,8 10 0,0
20.01.2017 16:00:00 3,8 -6,7 3,3 11 6 18 10 ONO 1033,7 10 0,0
20.01.2017 15:00:00 4,5 -6,2 4,7 11 6 18 10 ONO 1033,8 10 0,0
20.01.2017 14:00:00 4,6 -6,4 5,7 11 6 32 18 ONO 1034,3 10 0,0
20.01.2017 13:00:00 3,5 -5,4 4,6 8 4 43 23 ONO 1034,7 10 0,0
20.01.2017 12:00:00 2,0 -7,0 2,7 13 7 40 21 O 1035,2 10 0,0
20.01.2017 11:00:00 0,1 -5,4 0,2 8 4 14 8 NO 1035,7 10 0,0
20.01.2017 10:00:00 -2,8 -5,1 -3,2 8 4 11 6 NO 1035,6 10 0,0
20.01.2017 09:00:00 -4,9 -6,3 -9,2 5 3 7 4 NO 1035,5 10 0,0
20.01.2017 08:00:00 -6,3 -7,2 -9,9 4 2 7 4 ONO 1035,5 7 0,0
20.01.2017 07:00:00 -4,8 -6,2 -9,3 8 4 11 6 NO 1035,6 10 0,0
20.01.2017 06:00:00 -5,2 -5,7 -9,6 4 2 7 4 NO 1035,7 7 0,0
20.01.2017 05:00:00 -5,2 -6,2 -8,7 5 3 7 4 NNO 1036,0 9 0,0
20.01.2017 04:00:00 -4,5 -6,2 -7,9 8 4 11 6 NNO 1035,7 7 0,0
20.01.2017 03:00:00 -3,9 -5,5 -7,6 5 3 7 4 NNO 1035,9 7 0,0
20.01.2017 02:00:00 -3,8 -5,5 -8,0 5 3 7 4 NNO 1035,8 9 0,0
20.01.2017 01:00:00 -5,1 -6,4 -7,8 8 4 7 4 NNO 1036,4 8 0,0
20.01.2017 00:00:00 -4,8 -6,2 -8,7 4 2 7 4 - 1036,9 8 0,0
19.01.2017 23:00:00 -3,4 -5,5 -8,0 5 3 7 4 NNO 1036,9 10 0,0
19.01.2017 22:00:00 -3,6 -5,9 -7,5 8 4 11 6 NNO 1037,1 10 0,0
19.01.2017 21:00:00 -2,1 -6,0 -7,1 4 2 11 6 - 1037,2 10 0,0
19.01.2017 20:00:00 -2,2 -6,0 -7,1 5 3 7 4 NNO 1037,3 10 0,0
19.01.2017 19:00:00 -1,5 -5,9 -5,3 5 3 22 12 ONO 1037,1 10 0,0
19.01.2017 18:00:00 -1,1 -4,0 -5,5 4 2 7 4 NNO 1037,1 10 0,0
19.01.2017 17:00:00 0,3 -3,6 -1,1 8 4 11 6 NNO 1037,1 10 0,0
19.01.2017 16:00:00 3,0 -5,2 2,6 11 6 43 23 NO 1037,0 10 0,0
19.01.2017 15:00:00 3,4 -5,5 3,6 11 6 47 25 ONO 1036,9 10 0,0
19.01.2017 14:00:00 3,1 -4,5 3,7 9 5 47 25 NO 1037,3 10 0,0
19.01.2017 13:00:00 2,3 -4,9 3,6 8 4 11 6 OZO 1037,6 10 0,0
19.01.2017 12:00:00 1,3 -4,7 2,1 8 4 54 29 O 1038,1 10 0,0
19.01.2017 11:00:00 -1,1 -4,2 -0,4 8 4 11 6 ONO 1038,5 8 0,0
19.01.2017 10:00:00 -3,2 -4,4 -3,6 9 5 11 6 O 1038,6 6 0,0
19.01.2017 09:00:00 -5,8 -6,2 -9,5 7 4 7 4 ONO 1038,3 4,8 0,0
19.01.2017 08:00:00 -6,2 -7,0 -8,4 7 4 11 6 NNO 1038,0 4,5 0,0
19.01.2017 07:00:00 -5,1 -5,8 -8,8 7 4 7 4 NO 1037,7 4,3 0,0
19.01.2017 06:00:00 -5,6 -6,4 -8,3 7 4 7 4 ONO 1037,8 3,6 0,0
19.01.2017 05:00:00 -5,2 -5,6 -7,9 8 4 11 6 NO 1038,1 3,1 0,0
19.01.2017 04:00:00 -6,2 -6,8 -8,2 7 4 7 4 NNO 1038,2 2,9 0,0
19.01.2017 03:00:00 -4,8 -5,2 -7,8 8 4 11 6 NO 1038,1 2,7 0,0
19.01.2017 02:00:00 -5,4 -5,9 -7,6 7 4 11 6 NNO 1038,2 2,4 0,0
19.01.2017 01:00:00 -4,4 -4,7 -6,9 8 4 11 6 NNO 1038,3 2,6 0,0
19.01.2017 00:00:00 -4,4 -5,3 -7,0 8 4 11 6 NNO 1038,7 2,5 0,0
18.01.2017 23:00:00 -3,8 -4,3 -6,9 8 4 11 6 NO 1038,7 2,7 0,0
18.01.2017 22:00:00 -3,7 -4,6 -4,9 8 4 14 8 NO 1038,9 2,9 0,0
18.01.2017 21:00:00 -2,2 -3,4 -2,3 9 5 11 6 NO 1038,8 3,2 0,0
18.01.2017 20:00:00 -2,2 -3,5 -2,3 9 5 14 8 NO 1038,7 3,1 0,0
18.01.2017 19:00:00 -2,6 -3,8 -3,1 11 6 14 8 NO 1038,9 3,0 0,0
18.01.2017 18:00:00 -2,1 -3,6 -2,2 8 4 11 6 NO 1039,3 3,7 0,0
18.01.2017 17:00:00 -1,9 -4,0 -2,3 8 4 14 8 NO 1039,3 3,7 0,0
18.01.2017 16:00:00 -1,3 -4,0 -1,1 11 6 36 19 NO 1039,6 4,9 0,0
18.01.2017 15:00:00 -1,2 -3,8 -0,3 5 3 25 14 ONO 1039,2 4,8 0,0
18.01.2017 14:00:00 -1,9 -3,9 -1,1 9 5 29 16 ONO 1039,4 4,4 0,0
18.01.2017 13:00:00 -2,6 -4,2 -1,8 9 5 29 16 NO 1040,0 3,2 0,0
18.01.2017 12:00:00 -3,4 -4,5 -2,6 5 3 11 6 ONO 1040,4 2,6 0,0
18.01.2017 11:00:00 -4,0 -4,7 -3,7 9 5 14 8 O 1040,7 2,5 0,0
18.01.2017 10:00:00 -4,0 -5,0 -3,7 5 3 11 6 OZO 1040,5 2,4 0,0
18.01.2017 09:00:00 -4,2 -5,0 -4,1 5 3 11 6 ONO 1040,3 2,1 0,0
18.01.2017 08:00:00 -4,3 -5,0 -4,1 5 3 11 6 OZO 1039,7 2,1 0,0
18.01.2017 07:00:00 -4,2 -4,8 -4,1 8 4 14 8 O 1039,5 2,2 0,0
18.01.2017 06:00:00 -4,0 -4,4 -3,9 8 4 11 6 ONO 1039,5 2,2 0,0
18.01.2017 05:00:00 -3,8 -4,4 -3,7 5 3 14 8 O 1039,5 2,2 0,0
18.01.2017 04:00:00 -3,7 -4,3 -3,6 9 5 14 8 OZO 1039,5 2,6 0,0
18.01.2017 03:00:00 -3,7 -4,1 -3,6 9 5 18 10 O 1039,7 1,6 0,0
18.01.2017 02:00:00 -3,9 -4,1 -3,9 11 6 14 8 ONO 1039,9 1,7 0,0
18.01.2017 01:00:00 -4,5 -4,8 -4,6 11 6 18 10 O 1039,8 1,2 0,0
18.01.2017 00:00:00 -5,3 -5,9 -8,7 8 4 11 6 NO 1039,5 2,4 0,0
17.01.2017 23:00:00 -5,2 -5,8 -8,0 5 3 7 4 ONO 1039,3 2,7 0,0
17.01.2017 22:00:00 -3,5 -4,5 -7,2 8 4 25 14 NO 1039,6 2,9 0,0
17.01.2017 21:00:00 -4,0 -5,3 -7,3 5 3 11 6 ONO 1039,3 3,6 0,0
17.01.2017 20:00:00 -3,2 -4,9 -4,5 11 6 32 18 O 1039,4 3,3 0,0
17.01.2017 19:00:00 -2,4 -4,3 -4,2 8 4 43 23 ONO 1039,0 3,9 0,0
17.01.2017 18:00:00 -2,6 -4,1 -3,3 8 4 11 6 NO 1038,6 4,8 0,0
17.01.2017 17:00:00 -1,7 -4,0 -2,1 9 5 11 6 NNO 1038,3 5 0,0
17.01.2017 16:00:00 -1,0 -3,9 -0,9 8 4 14 8 NNO 1038,2 7 0,0
17.01.2017 15:00:00 -0,8 -3,9 -0,1 8 4 36 19 NNO 1038,2 7 0,0
17.01.2017 14:00:00 -0,9 -4,3 0,1 4 2 11 6 - 1038,2 7 0,0
17.01.2017 13:00:00 -1,5 -4,4 -0,7 5 3 14 8 ZO 1038,6 6 0,0
17.01.2017 12:00:00 -2,3 -4,6 -2,1 9 5 18 10 OZO 1038,6 5 0,0
17.01.2017 11:00:00 -2,7 -4,9 -2,5 9 5 14 8 O 1038,7 5 0,0
17.01.2017 10:00:00 -3,6 -5,0 -3,3 5 3 14 8 ONO 1038,2 5 0,0
17.01.2017 09:00:00 -4,1 -5,3 -4,0 9 5 18 10 O 1037,6 4,5 0,0
17.01.2017 08:00:00 -4,6 -5,2 -4,5 13 7 18 10 O 1036,9 3,0 0,0
17.01.2017 07:00:00 -4,8 -5,5 -4,6 8 4 - - O 1036,4 2,6 0,0
17.01.2017 06:00:00 -4,6 -5,2 -4,3 11 6 14 8 ONO 1035,9 2,8 0,0
17.01.2017 05:00:00 -4,9 -5,6 -4,5 11 6 14 8 O 1035,7 2,6 0,0
17.01.2017 04:00:00 -4,1 -4,4 -4,0 8 4 - - ONO 1035,2 2,0 0,0
17.01.2017 03:00:00 -4,0 -4,2 -3,9 9 5 14 8 ONO 1034,8 0,5 0,0
17.01.2017 02:00:00 -3,4 -3,7 -3,1 8 4 18 10 O 1034,6 1,9 0,0
17.01.2017 01:00:00 -2,7 -3,6 -2,6 9 5 14 8 NO 1034,2 4,5 0,0
17.01.2017 00:00:00 -2,2 -3,8 -2,5 9 5 14 8 NO 1033,8 5 0,0
16.01.2017 23:00:00 -3,7 -5,0 -4,6 8 4 14 8 NO 1033,3 6 0,0
16.01.2017 22:00:00 -2,2 -4,0 -2,7 8 4 14 8 O 1032,7 7 0,0
16.01.2017 21:00:00 -2,0 -3,9 -2,1 5 3 18 10 ONO 1032,2 8 0,0
16.01.2017 20:00:00 -2,5 -4,0 -2,3 15 8 22 12 O 1031,5 9 0,0
16.01.2017 19:00:00 -1,7 -3,2 -1,5 9 5 18 10 O 1030,9 10 0,0
16.01.2017 18:00:00 -1,3 -2,6 -1,2 8 4 18 10 O 1030,2 9 0,0
16.01.2017 17:00:00 -1,0 -1,6 -0,9 8 4 14 8 NNO 1029,7 6 0,0
16.01.2017 16:00:00 -0,8 -1,2 -0,6 8 4 11 6 OZO 1029,2 4,6 0,0
16.01.2017 15:00:00 -0,8 -1,2 -0,5 8 4 14 8 OZO 1028,7 4,2 0,0
16.01.2017 14:00:00 -0,8 -0,8 0,0 8 4 14 8 O 1028,2 1,1 0,0
16.01.2017 13:00:00 -0,2 -0,3 0,5 8 4 11 6 OZO 1028,1 1,4 0,0

tt = temperatuur
td = dauwpunt
tt 5cm = temperatuur 5cm
ff = windsnelheid
fx = windstoten
dd = windrichting
ppp = luchtdruk
vv = zicht
rr = neerslag

Weerstations in de omgeving